{"data":{"norad_id":69183,"intl_designator":"2026-114B","name":"STARLINK-37089","alt_names":[],"object_type":"PAYLOAD","status":"ACTIVE","operator":null,"country":"US","launch_date":"2026-05-25","launch_site_code":"AFETR","launch_vehicle":null,"mission":null,"orbit_class":"UNKNOWN","rcs_meters":null,"size_class":null,"mass_kg":null,"dimensions":null,"purposes":["comms"],"wikipedia_slug":null,"has_3d_model":false,"image_url":null,"decayed_at":null,"tle_current":{"epoch":"2026-09-19T22:13:29.830080Z","epoch_age_seconds":76557,"freshness":"FRESH","line1":"1 69183U 26114B   26262.92603970  .00015604  00000+0  47210-3 0  9997","line2":"2 69183  53.1590 116.7302 0001850  68.3632 291.7567 15.34392658 19355","mean_motion":15.34392658,"eccentricity":0.000185,"inclination_deg":53.159,"raan_deg":116.7302,"arg_perigee_deg":68.3632,"mean_anomaly_deg":291.7567,"bstar":0.0004721,"rev_number":1935,"period_min":93.848207138645,"perigee_km":461.45950278386,"apogee_km":463.9906217469,"semimajor_km":6840.8620622654,"source":"CELESTRAK","updated_at":"2026-09-20T09:00:44.095582Z"}}}